Location: Cabri�res
(43.7840°N, 5.4986°E)
Time: 09:33:35
(UTC+00:00)

Resurs 01 Rocket - Pass Details

Date: 09 April 2020
Orbit: 634 x 644 km, 98.0° (Epoch: 05 June)

Event Time Altitude Azimuth Distance (km) Brightness Sun altitude
Exits shadow 20:55:15 25° 233° (SW) 1,285 3.2 -26.3°
Maximum altitude 20:56:35 30° 264° (W) 1,152 3.2 -26.5°
Drops below altitude 10° 21:00:29 10° 326° (NW) 2,033 5.2 -27.0°
Sets 21:02:56 0° 337° (NNW) 2,949 6.1 -27.3°
